Flag for U.S.A. Weather past 2 weeks in Clovis, New Mexico, U.S.A.

Now
90 °F

Sunny.


Feels Like: 88 °F
Forecast: 65 / 89 °F
Wind: 8 mph from South

Location: Cannon Air Force Base / Clovis

Current Time: Jul 5, 2015 at 3:44:39 PM

Latest Report: Jul 5, 2015 at 2:58 PM


Visibility: 10 mi

Pressure: 29.82 "Hg (25.78 "Hg at 1300m altitude)

Humidity: 33%

Dew point: 57 °F

Location of ClovisLocation

Historic Weather in Clovis — Graph

°F

Clovis temperature yesterday

Maximum temperature yesterday: 88 °F (at 4:58 PM)
Minimum temperature yesterday: 62 °F (at 12:58 AM)
Average temperature yesterday: 74 °F

Past Weeks' High & Low Weather Summary

 TemperatureHumidityPressure
High94 °F (Jul 1, 4:58 PM)100% (Jul 4, 12:01 AM)30.15 "Hg (Jul 4, 12:01 AM)
Low60 °F (Jun 24, 5:58 AM)20% (Jul 1, 4:58 PM)29.78 "Hg (Jun 20, 5:58 PM)
Average76 °F59%29.96 "Hg
* Reported Jun 20 1:58 PM — Jul 5 1:58 PM, Clovis, Weather by CustomWeather, © 2015

Note: Actual official high and low records may vary slightly from our data, if they occured in-between our weather recording intervals... More about our weather records

Advertising

Clovis weather history for previous 24 hours

 ConditionsComfort  
Time TempWeatherWind HumidityBarometerVisibility
1:58 PM
Sun, Jul 5
87 °FScattered clouds.8 mph38%29.84 "Hg10 mi
12:58 PM87 °FBroken clouds.12 mph40%29.86 "Hg10 mi
11:58 AM85 °FBroken clouds.9 mph42%29.88 "Hg10 mi
10:58 AM84 °FScattered clouds.10 mph48%29.88 "Hg10 mi
9:58 AM81 °FSunny.10 mph56%29.90 "Hg10 mi
8:58 AM77 °FSunny.8 mph66%29.91 "Hg10 mi
7:58 AM71 °FSunny.10 mph80%29.91 "Hg10 mi
6:58 AM67 °FSunny.6 mph86%29.91 "Hg10 mi
5:58 AM64 °FClear.5 mph91%29.91 "Hg10 mi
4:58 AM65 °FClear.6 mph89%29.88 "Hg10 mi
3:58 AM66 °FClear.6 mph87%29.88 "Hg10 mi
2:58 AM68 °FClear.8 mph80%29.87 "Hg10 mi
1:58 AM68 °FClear.7 mph80%29.88 "Hg10 mi
12:58 AM69 °FClear.7 mph78%29.88 "Hg10 mi
11:58 PM
Sat, Jul 4
70 °FClear.7 mph77%29.88 "Hg10 mi
10:58 PM72 °FClear.9 mph68%29.90 "Hg10 mi
9:58 PM73 °FClear.8 mph66%29.89 "Hg10 mi
8:58 PM74 °FSunny.8 mph65%29.87 "Hg10 mi
7:58 PM78 °FSunny.8 mph54%29.86 "Hg10 mi
6:58 PM82 °FSunny.9 mph46%29.83 "Hg10 mi
5:58 PM86 °FSunny.12 mph39%29.81 "Hg10 mi
4:58 PM88 °FSunny.13 mph37%29.83 "Hg10 mi
3:58 PM87 °FSunny.13 mph40%29.84 "Hg10 mi
Weather by CustomWeather, © 2015

See weather overviewHow to use our weather pages